Back to catalog

CZ-6 R/B

AliveLEO
NORAD 49023·ROCKET BODY·🇨🇳 China

Launched Jul 9, 2021 from Taiyuan Satellite Launch Center

Loading…

Next Passes (next 24 hours)

TLE

FreshSource: Space-Track

Epoch: Sep 14, 2026, 11:37 UTC

1 49023U 21064F   26257.48455627  .00000077  00000-0  63262-4 0  9991
2 49023  44.9982  90.1762 0171584 174.4831 185.7958 14.40296832272750

Track CZ-6 R/B in real time with AllMySat

Download on the App Store